Sereno con foschia
Sereno con foschia
Sereno con foschia
Sereno con foschia
Sereno con foschia
Sereno
Sereno
(°C)
12°
12°
11°
11°
11°
11°
11°
11°
10°
10°
11°
11°
12°
12°
(°C)
11°
10°
10°
10°
WNW
WNW
O
WNW
WNW
WNW
WNW
(km/h)
4-7
4-6
5-8
5-7
5-6
5-6
5-7
(mm)
0
0
0
0
0
0
0
(%)
0
0
0
0
0
0
0

Elevazione del sole

/ -37.8°
sun-icon
UV 7
07:13
20:51
Gibbosa calante (197°)
22:43
07:46

METAR per Alcantarilla (LERI)

Ora Condizioni Temperatura/
Punto di rugiada
Vento Visibilità Meteo Nuvole Pressione Cambiamento Grezzo
VFR 18°C / 7°C 160º 6kt 9700m - Clouds and Visibility OK 1014 No Significant change LERI 241800Z 16006KT CAVOK 18/07 Q1014 NOSIG
VFR 20°C / 6°C 200º variable 150º to 270º 6kt 9700m - Clouds and Visibility OK 1014 No Significant change LERI 241730Z 20006KT 150V270 CAVOK 20/06 Q1014 NOSIG
VFR 20°C / 5°C 170º variable 140º to 200º 11kt 9700m - Clouds and Visibility OK 1014 No Significant change LERI 241700Z 17011KT 140V200 CAVOK 20/05 Q1014 NOSIG
VFR 21°C / 5°C 150º variable 120º to 190º 11kt 9700m - Clouds and Visibility OK 1014 No Significant change LERI 241630Z 15011KT 120V190 CAVOK 21/05 Q1014 NOSIG
VFR 21°C / 6°C 150º 14kt 9700m - Clouds and Visibility OK 1014 No Significant change LERI 241600Z 15014KT CAVOK 21/06 Q1014 NOSIG
VFR 22°C / 4°C 160º variable 120º to 180º 11kt 9700m - Clouds and Visibility OK 1014 No Significant change LERI 241530Z 16011KT 120V180 CAVOK 22/04 Q1014 NOSIG
VFR 22°C / 3°C 150º variable 090º to 180º 11kt Gust 21kt 9700m - Clouds and Visibility OK 1014 No Significant change LERI 241500Z 15011G21KT 090V180 CAVOK 22/03 Q1014 NOSIG
VFR 22°C / 2°C 150º variable 100º to 190º 9kt 9700m - Clouds and Visibility OK 1014 No Significant change LERI 241430Z 15009KT 100V190 CAVOK 22/02 Q1014 NOSIG
VFR 22°C / -8°C 20º variable 290º to 100º 4kt 9700m - Clouds and Visibility OK 1015 No Significant change LERI 241400Z 02004KT 290V100 CAVOK 22/M08 Q1015 NOSIG
VFR 22°C / -8°C 90º variable 020º to 130º 6kt 9700m - Clouds and Visibility OK 1016 No Significant change LERI 241330Z 09006KT 020V130 CAVOK 22/M08 Q1016 NOSIG
VFR 21°C / -7°C 180º variable 140º to 230º 5kt 9700m - Clouds and Visibility OK 1016 No Significant change LERI 241300Z 18005KT 140V230 CAVOK 21/M07 Q1016 NOSIG
VFR 21°C / -8°C 60º variable 350º to 140º 5kt 9700m - Clouds and Visibility OK 1016 No Significant change LERI 241230Z 06005KT 350V140 CAVOK 21/M08 Q1016 NOSIG
VFR 20°C / -6°C 40º variable 330º to 110º 6kt 9700m - Clouds and Visibility OK 1017 No Significant change LERI 241200Z 04006KT 330V110 CAVOK 20/M06 Q1017 NOSIG
VFR 19°C / -5°C 3kt 9700m - Clouds and Visibility OK 1018 No Significant change LERI 241130Z VRB03KT CAVOK 19/M05 Q1018 NOSIG
VFR 19°C / -5°C 3kt 9700m - Clouds and Visibility OK 1018 No Significant change LERI 241100Z VRB03KT CAVOK 19/M05 Q1018 NOSIG
VFR 18°C / -3°C 7kt Gust 17kt 9700m - Clouds and Visibility OK 1018 No Significant change LERI 241030Z VRB07G17KT CAVOK 18/M03 Q1018 NOSIG
VFR 17°C / -2°C 320º 2kt 9700m - Clouds and Visibility OK 1019 No Significant change LERI 241000Z 32002KT CAVOK 17/M02 Q1019 NOSIG
VFR 17°C / -1°C 2kt 9700m - Clouds and Visibility OK 1019 No Significant change LERI 240930Z VRB02KT CAVOK 17/M01 Q1019 NOSIG
VFR 16°C / -1°C 4kt 9700m - Clouds and Visibility OK 1019 No Significant change LERI 240900Z VRB04KT CAVOK 16/M01 Q1019 NOSIG
VFR 16°C / 0°C 340º variable 290º to 020º 7kt 9700m - Clouds and Visibility OK 1019 No Significant change LERI 240830Z 34007KT 290V020 CAVOK 16/M00 Q1019 NOSIG
VFR 15°C / 1°C 340º variable 290º to 010º 7kt 9700m - Few Clouds 3000ft 1019 No Significant change LERI 240800Z 34007KT 290V010 9999 FEW030 15/01 Q1019 NOSIG
VFR 14°C / 1°C 340º variable 290º to 010º 7kt 9700m - Few Clouds 3000ft 1019 No Significant change LERI 240730Z 34007KT 290V010 9999 FEW030 14/01 Q1019 NOSIG
VFR 14°C / 1°C 6kt 9700m - Few Clouds 3000ft 1019 No Significant change LERI 240700Z VRB06KT 9999 FEW030 14/01 Q1019 NOSIG
VFR 12°C / 3°C 130º variable 100º to 160º 4kt 9700m - Few Clouds 3000ft 1018 No Significant change LERI 240630Z 13004KT 100V160 9999 FEW030 12/03 Q1018 NOSIG

VFR

18°C / 7°C

[Più]
Vento 160º 6kt
Visibilità 9700m
Meteo -
Nuvole Clouds and Visibility OK
Pressione 1014
Cambiamento No Significant change
Grezzo LERI 241800Z 16006KT CAVOK 18/07 Q1014 NOSIG

VFR

20°C / 6°C

[Più]
Vento 200º variable 150º to 270º 6kt
Visibilità 9700m
Meteo -
Nuvole Clouds and Visibility OK
Pressione 1014
Cambiamento No Significant change
Grezzo LERI 241730Z 20006KT 150V270 CAVOK 20/06 Q1014 NOSIG

VFR

20°C / 5°C

[Più]
Vento 170º variable 140º to 200º 11kt
Visibilità 9700m
Meteo -
Nuvole Clouds and Visibility OK
Pressione 1014
Cambiamento No Significant change
Grezzo LERI 241700Z 17011KT 140V200 CAVOK 20/05 Q1014 NOSIG

VFR

21°C / 5°C

[Più]
Vento 150º variable 120º to 190º 11kt
Visibilità 9700m
Meteo -
Nuvole Clouds and Visibility OK
Pressione 1014
Cambiamento No Significant change
Grezzo LERI 241630Z 15011KT 120V190 CAVOK 21/05 Q1014 NOSIG

VFR

21°C / 6°C

[Più]
Vento 150º 14kt
Visibilità 9700m
Meteo -
Nuvole Clouds and Visibility OK
Pressione 1014
Cambiamento No Significant change
Grezzo LERI 241600Z 15014KT CAVOK 21/06 Q1014 NOSIG

VFR

22°C / 4°C

[Più]
Vento 160º variable 120º to 180º 11kt
Visibilità 9700m
Meteo -
Nuvole Clouds and Visibility OK
Pressione 1014
Cambiamento No Significant change
Grezzo LERI 241530Z 16011KT 120V180 CAVOK 22/04 Q1014 NOSIG

VFR

22°C / 3°C

[Più]
Vento 150º variable 090º to 180º 11kt Gust 21kt
Visibilità 9700m
Meteo -
Nuvole Clouds and Visibility OK
Pressione 1014
Cambiamento No Significant change
Grezzo LERI 241500Z 15011G21KT 090V180 CAVOK 22/03 Q1014 NOSIG

VFR

22°C / 2°C

[Più]
Vento 150º variable 100º to 190º 9kt
Visibilità 9700m
Meteo -
Nuvole Clouds and Visibility OK
Pressione 1014
Cambiamento No Significant change
Grezzo LERI 241430Z 15009KT 100V190 CAVOK 22/02 Q1014 NOSIG

VFR

22°C / -8°C

[Più]
Vento 20º variable 290º to 100º 4kt
Visibilità 9700m
Meteo -
Nuvole Clouds and Visibility OK
Pressione 1015
Cambiamento No Significant change
Grezzo LERI 241400Z 02004KT 290V100 CAVOK 22/M08 Q1015 NOSIG

VFR

22°C / -8°C

[Più]
Vento 90º variable 020º to 130º 6kt
Visibilità 9700m
Meteo -
Nuvole Clouds and Visibility OK
Pressione 1016
Cambiamento No Significant change
Grezzo LERI 241330Z 09006KT 020V130 CAVOK 22/M08 Q1016 NOSIG

VFR

21°C / -7°C

[Più]
Vento 180º variable 140º to 230º 5kt
Visibilità 9700m
Meteo -
Nuvole Clouds and Visibility OK
Pressione 1016
Cambiamento No Significant change
Grezzo LERI 241300Z 18005KT 140V230 CAVOK 21/M07 Q1016 NOSIG

VFR

21°C / -8°C

[Più]
Vento 60º variable 350º to 140º 5kt
Visibilità 9700m
Meteo -
Nuvole Clouds and Visibility OK
Pressione 1016
Cambiamento No Significant change
Grezzo LERI 241230Z 06005KT 350V140 CAVOK 21/M08 Q1016 NOSIG

VFR

20°C / -6°C

[Più]
Vento 40º variable 330º to 110º 6kt
Visibilità 9700m
Meteo -
Nuvole Clouds and Visibility OK
Pressione 1017
Cambiamento No Significant change
Grezzo LERI 241200Z 04006KT 330V110 CAVOK 20/M06 Q1017 NOSIG

VFR

19°C / -5°C

[Più]
Vento 3kt
Visibilità 9700m
Meteo -
Nuvole Clouds and Visibility OK
Pressione 1018
Cambiamento No Significant change
Grezzo LERI 241130Z VRB03KT CAVOK 19/M05 Q1018 NOSIG

VFR

19°C / -5°C

[Più]
Vento 3kt
Visibilità 9700m
Meteo -
Nuvole Clouds and Visibility OK
Pressione 1018
Cambiamento No Significant change
Grezzo LERI 241100Z VRB03KT CAVOK 19/M05 Q1018 NOSIG

VFR

18°C / -3°C

[Più]
Vento 7kt Gust 17kt
Visibilità 9700m
Meteo -
Nuvole Clouds and Visibility OK
Pressione 1018
Cambiamento No Significant change
Grezzo LERI 241030Z VRB07G17KT CAVOK 18/M03 Q1018 NOSIG

VFR

17°C / -2°C

[Più]
Vento 320º 2kt
Visibilità 9700m
Meteo -
Nuvole Clouds and Visibility OK
Pressione 1019
Cambiamento No Significant change
Grezzo LERI 241000Z 32002KT CAVOK 17/M02 Q1019 NOSIG

VFR

17°C / -1°C

[Più]
Vento 2kt
Visibilità 9700m
Meteo -
Nuvole Clouds and Visibility OK
Pressione 1019
Cambiamento No Significant change
Grezzo LERI 240930Z VRB02KT CAVOK 17/M01 Q1019 NOSIG

VFR

16°C / -1°C

[Più]
Vento 4kt
Visibilità 9700m
Meteo -
Nuvole Clouds and Visibility OK
Pressione 1019
Cambiamento No Significant change
Grezzo LERI 240900Z VRB04KT CAVOK 16/M01 Q1019 NOSIG

VFR

16°C / 0°C

[Più]
Vento 340º variable 290º to 020º 7kt
Visibilità 9700m
Meteo -
Nuvole Clouds and Visibility OK
Pressione 1019
Cambiamento No Significant change
Grezzo LERI 240830Z 34007KT 290V020 CAVOK 16/M00 Q1019 NOSIG

VFR

15°C / 1°C

[Più]
Vento 340º variable 290º to 010º 7kt
Visibilità 9700m
Meteo -
Nuvole Few Clouds 3000ft
Pressione 1019
Cambiamento No Significant change
Grezzo LERI 240800Z 34007KT 290V010 9999 FEW030 15/01 Q1019 NOSIG

VFR

14°C / 1°C

[Più]
Vento 340º variable 290º to 010º 7kt
Visibilità 9700m
Meteo -
Nuvole Few Clouds 3000ft
Pressione 1019
Cambiamento No Significant change
Grezzo LERI 240730Z 34007KT 290V010 9999 FEW030 14/01 Q1019 NOSIG

VFR

14°C / 1°C

[Più]
Vento 6kt
Visibilità 9700m
Meteo -
Nuvole Few Clouds 3000ft
Pressione 1019
Cambiamento No Significant change
Grezzo LERI 240700Z VRB06KT 9999 FEW030 14/01 Q1019 NOSIG

VFR

12°C / 3°C

[Più]
Vento 130º variable 100º to 160º 4kt
Visibilità 9700m
Meteo -
Nuvole Few Clouds 3000ft
Pressione 1018
Cambiamento No Significant change
Grezzo LERI 240630Z 13004KT 100V160 9999 FEW030 12/03 Q1018 NOSIG

TAF per Alcantarilla (LERI)

From till


Maximum Temperature 25ºC on . Minimum Temperature 9ºC on .
From till Wind 170º 10kt. Visibility 9700m. Nil Significant Cloud.
Becoming from till
Becoming from till
With 30% probability, Temporarly from till Visibility 3000m. Mist .

Grezzo: TAF LERI 241700Z 2418/2518 17010KT CAVOK TX25/2515Z TN09/2506Z BECMG 2419/2421 VRB02KT BECMG 2512/2514 17010KT PROB30 TEMPO 2502/2506 3000 BR

Radar e nowcasting per Alcantarilla

Pioviggine
Lieve
Moderato
Forte
Molto forte
Grandine

Il segnaposto è situato a Alcantarilla. Questa animazione mostra il radar delle precipitazioni per l'intervallo di tempo selezionato, nonché una previsione di 2h. Le croci arancioni indicano i fulmini. Dati forniti da nowcast.de (disponibili in USA, Europa e Australia). La pioviggine o una leggera nevicata potrebbero essere invisibili per il radar. L'intensità delle precipitazioni è codificata a colori, che vanno dal turchese al rosso.

Tempo in atto per Alcantarilla: immagine satellitare e pioggia, Spagna

Il segnaposto è situato a Alcantarilla. [Più]

L'immagine satellitare in tempo reale combina la luce visibile durante il giorno con la radiazione infrarossa durante la notte. Di notte l'immagine non è scura poiché i raggi infrarossi possono rilevare differenze di temperatura. Purtroppo, le nuvole basse e la nebbia sono difficili da distinguere dalla temperatura del suolo e possono pertanto essere quasi invisibili durante la notte. Le immagini satellitari Meteosat per l'Europa vengono aggiornate in tempo reale ogni 5 minuti. Le immagini GOES-16 / GOES-17 (Nord e Sud America) e Himawari (Asia) vengono aggiornate ogni 10 minuti.

Le precipitazioni sono stimate da radar e satelliti. I calcoli delle precipitazioni dai satelliti sono meno accurati di notte che durante il giorno.

© 2024 meteoblue, NOAA Satellites GOES-16 and EUMETSAT. Fulminazioni fornite da nowcast.

Tornare su
×
Salve,
sembra che stiate usando un blocco degli annunci.

La pubblicità è essenziale per mantenere il nostro sito Web gratuito con dettagli e accuratezza unici.

Si prega di inserire www.meteoblue.com nella whitelist del vostro blocco degli annunci o di considerare l'acquisto di uno dei nostri prodotti:

Avete già un abbonamento?
Allora per favore eseguite il login.